WXM80 ListenWXM80 Stop

You find our weather info also at:

UK Metoffice

WeatherCloud

Weather Underground

Northeastern Weather Network

AWEKAS

Citizen Weather Observer Program (CWOP)

HAMweather, WeatherForYou, PWS Weather


Weather Underground History page Text

Daily Summary for April 19, 2017 Units:  English    Metric   Both
« Previous Day
Next Day »
Daily Weekly Monthly Yearly Custom
  High: Low: Average:
Temperature: 53.8 °F 40.4 °F 47 °F
Dew Point: 46.2 °F 36.6 °F 40.8 °F
Humidity: 95 % 61 % 80 %
Wind Speed: 9.7 mph 0.0 mph 2.4 mph
Wind Gust: 17.3 mph - -
Wind:- - SE
Pressure: 30.52 in 30.20 in -
Precipitation: 0.00 in    
Historical Graphs
 
 
Tabular Data for April 19, 2017
Time Temperature Dew Point Pressure Wind Wind Speed Wind Gust Humidity Rainfall Rate (Hourly)
00:04 45.7 °F 40.5 °F 30.49 in SSE 0.4 mph 1.2 mph 82 % 0.00 in
00:05 45.7 °F 40.5 °F 30.49 in SSE 0.3 mph 1.2 mph 82 % 0.00 in
00:10 45.6 °F 40.4 °F 30.50 in Calm     82 % 0.00 in
00:15 45.5 °F 40.3 °F 30.50 in Calm   1.2 mph 82 % 0.00 in
00:20 45.4 °F 40.2 °F 30.50 in Calm     82 % 0.00 in
00:25 45.2 °F 40.0 °F 30.50 in Calm   1.2 mph 82 % 0.00 in
00:30 45.1 °F 39.9 °F 30.50 in Calm     82 % 0.00 in
00:35 45.0 °F 39.8 °F 30.51 in Calm     82 % 0.00 in
00:40 44.9 °F 40.0 °F 30.50 in SSE 0.6 mph 1.2 mph 83 % 0.00 in
00:46 44.7 °F 39.9 °F 30.50 in SSE 2.0 mph 2.3 mph 83 % 0.00 in
00:51 44.3 °F 39.8 °F 30.50 in SSE 1.5 mph 2.3 mph 84 % 0.00 in
00:56 44.1 °F 39.6 °F 30.51 in Calm   1.2 mph 84 % 0.00 in
01:01 44.0 °F 39.5 °F 30.51 in SSE 0.4 mph 1.0 mph 84 % 0.00 in
01:06 43.9 °F 39.7 °F 30.51 in SSE 1.8 mph 2.3 mph 85 % 0.00 in
01:11 43.7 °F 39.5 °F 30.51 in ESE 1.5 mph 3.5 mph 85 % 0.00 in
01:16 43.6 °F 39.4 °F 30.51 in ESE 1.4 mph 2.3 mph 85 % 0.00 in
01:21 43.4 °F 39.2 °F 30.51 in ESE 1.4 mph 2.3 mph 85 % 0.00 in
01:26 43.4 °F 39.5 °F 30.50 in East 1.7 mph 4.6 mph 86 % 0.00 in
01:31 43.5 °F 39.6 °F 30.50 in East 1.5 mph 3.5 mph 86 % 0.00 in
01:36 43.6 °F 40.0 °F 30.51 in East 0.6 mph 3.5 mph 87 % 0.00 in
01:41 43.6 °F 40.0 °F 30.50 in East 2.3 mph 3.5 mph 87 % 0.00 in
01:46 43.6 °F 39.7 °F 30.50 in ESE 2.2 mph 3.5 mph 86 % 0.00 in
01:51 43.6 °F 39.7 °F 30.50 in East 2.1 mph 3.5 mph 86 % 0.00 in
01:56 43.5 °F 39.6 °F 30.50 in East 3.7 mph 5.8 mph 86 % 0.00 in
02:01 43.5 °F 39.6 °F 30.50 in East 0.3 mph 2.3 mph 86 % 0.00 in
02:06 43.4 °F 39.5 °F 30.50 in East 1.7 mph 2.3 mph 86 % 0.00 in
02:11 43.4 °F 39.5 °F 30.50 in ESE 0.3 mph 2.3 mph 86 % 0.00 in
02:16 43.3 °F 39.1 °F 30.50 in ESE 1.2 mph 3.5 mph 85 % 0.00 in
02:21 43.3 °F 39.1 °F 30.50 in ESE 0.8 mph 2.3 mph 85 % 0.00 in
02:26 43.3 °F 39.1 °F 30.50 in East 1.2 mph 3.5 mph 85 % 0.00 in
02:31 43.2 °F 39.0 °F 30.50 in SE 0.6 mph 2.3 mph 85 % 0.00 in
02:36 43.2 °F 39.0 °F 30.49 in SE 1.2 mph 2.3 mph 85 % 0.00 in
02:41 43.2 °F 39.0 °F 30.49 in SE 1.1 mph 2.3 mph 85 % 0.00 in
02:46 43.1 °F 38.9 °F 30.49 in Calm   1.0 mph 85 % 0.00 in
02:51 43.1 °F 38.6 °F 30.49 in ESE 0.5 mph 1.2 mph 84 % 0.00 in
02:57 43.1 °F 38.6 °F 30.49 in SE 0.1 mph 1.2 mph 84 % 0.00 in
03:02 43.0 °F 38.5 °F 30.49 in SE 0.6 mph 2.3 mph 84 % 0.00 in
03:07 43.0 °F 38.5 °F 30.49 in SE 0.2 mph 2.3 mph 84 % 0.00 in
03:12 43.0 °F 38.5 °F 30.49 in SE 0.2 mph 1.2 mph 84 % 0.00 in
03:17 42.9 °F 38.4 °F 30.50 in ESE 0.8 mph 2.0 mph 84 % 0.00 in
03:22 42.8 °F 38.3 °F 30.49 in SE 1.5 mph 5.8 mph 84 % 0.00 in
03:27 42.7 °F 38.2 °F 30.49 in ESE 1.3 mph 3.5 mph 84 % 0.00 in
03:32 42.7 °F 38.2 °F 30.49 in SE 2.0 mph 5.8 mph 84 % 0.00 in
03:37 42.6 °F 38.1 °F 30.50 in SE 1.1 mph 1.2 mph 84 % 0.00 in
03:42 42.5 °F 38.0 °F 30.50 in Calm   2.0 mph 84 % 0.00 in
03:47 42.5 °F 38.0 °F 30.49 in East 2.3 mph 3.5 mph 84 % 0.00 in
03:52 42.4 °F 37.9 °F 30.49 in Calm   3.0 mph 84 % 0.00 in
03:57 42.3 °F 37.8 °F 30.50 in Calm   1.2 mph 84 % 0.00 in
04:02 42.2 °F 37.7 °F 30.50 in Calm     84 % 0.00 in
04:07 42.1 °F 37.6 °F 30.50 in Calm   1.0 mph 84 % 0.00 in
04:12 42.0 °F 37.5 °F 30.50 in Calm   1.0 mph 84 % 0.00 in
04:17 41.9 °F 37.4 °F 30.50 in Calm   1.0 mph 84 % 0.00 in
04:22 41.9 °F 37.7 °F 30.51 in Calm   2.0 mph 85 % 0.00 in
04:27 41.8 °F 37.3 °F 30.51 in Calm     84 % 0.00 in
04:32 41.7 °F 37.2 °F 30.51 in Calm     84 % 0.00 in
04:37 41.6 °F 37.1 °F 30.51 in Calm     84 % 0.00 in
04:42 41.5 °F 37.0 °F 30.50 in East 0.1 mph 1.2 mph 84 % 0.00 in
04:47 41.3 °F 37.1 °F 30.50 in Calm     85 % 0.00 in
04:52 41.2 °F 37.0 °F 30.50 in Calm     85 % 0.00 in
04:57 41.1 °F 37.2 °F 30.50 in East 1.4 mph 2.3 mph 86 % 0.00 in
04:58 41.0 °F 37.1 °F 30.50 in East 1.4 mph 2.3 mph 86 % 0.00 in
05:03 40.9 °F 37.0 °F 30.50 in Calm     86 % 0.00 in
05:08 40.7 °F 36.8 °F 30.50 in Calm     86 % 0.00 in
05:13 40.6 °F 36.7 °F 30.50 in Calm   1.2 mph 86 % 0.00 in
05:18 40.5 °F 36.6 °F 30.50 in Calm     86 % 0.00 in
05:23 40.5 °F 36.6 °F 30.50 in Calm     86 % 0.00 in
05:28 40.4 °F 36.8 °F 30.50 in East 0.2 mph 1.2 mph 87 % 0.00 in
05:33 40.4 °F 36.8 °F 30.50 in Calm   1.2 mph 87 % 0.00 in
05:38 40.4 °F 36.8 °F 30.50 in Calm     87 % 0.00 in
05:43 40.5 °F 36.9 °F 30.50 in Calm   2.3 mph 87 % 0.00 in
05:48 40.6 °F 37.0 °F 30.50 in East 0.1 mph 1.2 mph 87 % 0.00 in
05:53 40.7 °F 37.4 °F 30.51 in Calm   1.2 mph 88 % 0.00 in
05:58 40.8 °F 37.5 °F 30.50 in East 1.1 mph 2.0 mph 88 % 0.00 in
06:03 41.0 °F 37.7 °F 30.50 in East 2.0 mph 2.3 mph 88 % 0.00 in
06:08 41.2 °F 37.9 °F 30.50 in East 1.2 mph 3.5 mph 88 % 0.00 in
06:13 41.4 °F 38.1 °F 30.50 in East 1.0 mph 3.0 mph 88 % 0.00 in
06:18 41.6 °F 38.0 °F 30.50 in East 0.7 mph 2.0 mph 87 % 0.00 in
06:23 41.7 °F 38.1 °F 30.50 in East 1.7 mph 3.5 mph 87 % 0.00 in
06:28 41.9 °F 38.0 °F 30.50 in East 2.1 mph 3.5 mph 86 % 0.00 in
06:33 42.1 °F 38.2 °F 30.50 in East 0.4 mph 1.2 mph 86 % 0.00 in
06:38 42.2 °F 38.3 °F 30.51 in East 0.4 mph 3.5 mph 86 % 0.00 in
06:43 42.4 °F 38.5 °F 30.50 in East 1.1 mph 2.3 mph 86 % 0.00 in
06:48 42.5 °F 38.3 °F 30.50 in East 2.5 mph 2.5 mph 85 % 0.00 in
06:49 42.6 °F 38.4 °F 30.50 in Calm   1.2 mph 85 % 0.00 in
06:55 42.7 °F 38.5 °F 30.50 in East 1.6 mph 2.3 mph 85 % 0.00 in
07:00 42.8 °F 38.6 °F 30.50 in East 0.8 mph 3.5 mph 85 % 0.00 in
07:05 42.9 °F 38.7 °F 30.51 in East 0.2 mph 1.0 mph 85 % 0.00 in
07:10 43.0 °F 38.8 °F 30.51 in East 0.9 mph 2.3 mph 85 % 0.00 in
07:15 43.2 °F 39.0 °F 30.52 in East 1.3 mph 2.3 mph 85 % 0.00 in
07:20 43.4 °F 38.9 °F 30.51 in East 2.3 mph 3.5 mph 84 % 0.00 in
07:25 43.7 °F 39.2 °F 30.51 in East 0.3 mph 3.5 mph 84 % 0.00 in
07:30 43.9 °F 39.1 °F 30.52 in East 2.4 mph 4.6 mph 83 % 0.00 in
07:35 44.1 °F 39.3 °F 30.52 in ESE 0.4 mph 2.3 mph 83 % 0.00 in
07:40 44.3 °F 39.2 °F 30.52 in East 2.2 mph 5.0 mph 82 % 0.00 in
07:45 44.6 °F 39.1 °F 30.51 in ESE 2.7 mph 4.6 mph 81 % 0.00 in
07:50 44.7 °F 39.2 °F 30.51 in SE 1.1 mph 3.0 mph 81 % 0.00 in
07:55 44.9 °F 39.1 °F 30.51 in East 3.0 mph 7.0 mph 80 % 0.00 in
08:00 45.2 °F 39.1 °F 30.51 in SE 2.8 mph 6.9 mph 79 % 0.00 in
08:05 45.4 °F 38.9 °F 30.50 in SE 4.0 mph 9.2 mph 78 % 0.00 in
08:10 45.6 °F 39.1 °F 30.50 in ESE 3.9 mph 8.1 mph 78 % 0.00 in
08:15 45.6 °F 38.8 °F 30.50 in East 3.5 mph 9.2 mph 77 % 0.00 in
08:20 45.6 °F 38.8 °F 30.50 in South 3.6 mph 8.1 mph 77 % 0.00 in
08:25 45.7 °F 38.9 °F 30.50 in SE 2.3 mph 5.0 mph 77 % 0.00 in
08:30 45.9 °F 39.4 °F 30.50 in SE 2.6 mph 4.6 mph 78 % 0.00 in
08:35 46.2 °F 39.4 °F 30.50 in ESE 2.1 mph 3.5 mph 77 % 0.00 in
08:40 46.5 °F 39.7 °F 30.50 in SSE 3.7 mph 5.8 mph 77 % 0.00 in
08:45 46.6 °F 39.1 °F 30.50 in SSE 3.3 mph 6.9 mph 75 % 0.00 in
08:50 46.8 °F 39.6 °F 30.50 in East 2.2 mph 4.6 mph 76 % 0.00 in
08:56 47.0 °F 39.5 °F 30.50 in SSE 4.9 mph 8.0 mph 75 % 0.00 in
09:01 47.2 °F 39.7 °F 30.50 in SSE 2.4 mph 6.9 mph 75 % 0.00 in
09:06 47.6 °F 40.1 °F 30.49 in SE 4.3 mph 8.0 mph 75 % 0.00 in
09:16 48.3 °F 40.0 °F 30.49 in South 5.6 mph 9.2 mph 73 % 0.00 in
09:21 48.5 °F 39.9 °F 30.49 in ESE 3.7 mph 5.8 mph 72 % 0.00 in
09:26 48.6 °F 40.0 °F 30.49 in SE 3.6 mph 4.6 mph 72 % 0.00 in
09:31 49.2 °F 40.2 °F 30.49 in SSE 8.7 mph 11.5 mph 71 % 0.00 in
09:36 49.8 °F 41.1 °F 30.49 in SSE 3.4 mph 6.9 mph 72 % 0.00 in
09:41 50.4 °F 40.6 °F 30.49 in SSE 6.3 mph 9.2 mph 69 % 0.00 in
09:46 50.1 °F 39.6 °F 30.48 in SE 5.2 mph 9.2 mph 67 % 0.00 in
09:51 49.7 °F 39.9 °F 30.48 in SE 2.6 mph 6.9 mph 69 % 0.00 in
09:56 49.8 °F 39.7 °F 30.48 in SE 8.5 mph 13.8 mph 68 % 0.00 in
10:01 49.5 °F 39.7 °F 30.48 in South 4.0 mph 6.9 mph 69 % 0.00 in
10:06 49.2 °F 39.1 °F 30.48 in SE 2.8 mph 6.9 mph 68 % 0.00 in
10:11 49.6 °F 40.2 °F 30.49 in SSE 4.8 mph 9.2 mph 70 % 0.00 in
10:16 49.7 °F 39.2 °F 30.49 in South 5.4 mph 11.5 mph 67 % 0.00 in
10:21 49.7 °F 39.6 °F 30.49 in SE 6.0 mph 9.2 mph 68 % 0.00 in
10:26 49.7 °F 40.3 °F 30.49 in SSE 1.3 mph 4.0 mph 70 % 0.00 in
10:31 49.7 °F 39.2 °F 30.49 in South 3.1 mph 5.8 mph 67 % 0.00 in
10:36 49.5 °F 39.4 °F 30.48 in South 5.4 mph 10.4 mph 68 % 0.00 in
10:41 49.4 °F 39.7 °F 30.48 in South 3.0 mph 5.8 mph 69 % 0.00 in
10:46 50.2 °F 40.4 °F 30.48 in South 4.0 mph 11.5 mph 69 % 0.00 in
10:51 50.4 °F 40.2 °F 30.48 in SSE 6.3 mph 9.2 mph 68 % 0.00 in
10:56 50.5 °F 39.6 °F 30.48 in SSW 1.4 mph 5.8 mph 66 % 0.00 in
11:02 51.2 °F 39.8 °F 30.47 in SSE 5.7 mph 10.4 mph 65 % 0.00 in
11:07 51.5 °F 40.9 °F 30.47 in SE 3.7 mph 8.1 mph 67 % 0.00 in
11:12 52.0 °F 39.8 °F 30.47 in East 8.1 mph 13.8 mph 63 % 0.00 in
11:17 51.8 °F 39.2 °F 30.47 in SSE 4.5 mph 9.2 mph 62 % 0.00 in
11:22 51.3 °F 39.5 °F 30.47 in South 4.8 mph 9.2 mph 64 % 0.00 in
11:27 51.9 °F 40.5 °F 30.47 in SSW 2.5 mph 6.9 mph 65 % 0.00 in
11:32 52.4 °F 40.2 °F 30.47 in South 6.1 mph 11.5 mph 63 % 0.00 in
11:42 53.4 °F 41.5 °F 30.46 in SSE 9.7 mph 17.3 mph 64 % 0.00 in
11:47 53.5 °F 40.8 °F 30.47 in SSE 3.0 mph 5.0 mph 62 % 0.00 in
11:52 53.3 °F 40.6 °F 30.47 in SSW 3.7 mph 6.0 mph 62 % 0.00 in
11:57 52.7 °F 39.6 °F 30.46 in SSW 2.7 mph 6.9 mph 61 % 0.00 in
12:02 52.0 °F 39.8 °F 30.46 in ESE 5.0 mph 9.2 mph 63 % 0.00 in
12:07 51.7 °F 40.3 °F 30.45 in SSW 1.2 mph 4.6 mph 65 % 0.00 in
12:12 51.3 °F 39.1 °F 30.45 in South 5.6 mph 11.5 mph 63 % 0.00 in
12:17 50.6 °F 39.7 °F 30.45 in South 3.8 mph 6.9 mph 66 % 0.00 in
12:22 51.0 °F 40.8 °F 30.45 in South 2.0 mph 9.0 mph 68 % 0.00 in
12:27 51.0 °F 40.0 °F 30.45 in South 5.0 mph 12.0 mph 66 % 0.00 in
12:29 51.0 °F 40.0 °F 30.44 in South 1.8 mph 5.8 mph 66 % 0.00 in
12:34 50.6 °F 38.9 °F 30.44 in SE 4.9 mph 11.5 mph 64 % 0.00 in
12:39 50.3 °F 39.0 °F 30.44 in SSW 4.9 mph 11.5 mph 65 % 0.00 in
12:44 50.3 °F 40.5 °F 30.44 in South 3.3 mph 9.2 mph 69 % 0.00 in
12:49 50.5 °F 40.3 °F 30.44 in SE 4.8 mph 10.0 mph 68 % 0.00 in
12:54 50.6 °F 40.0 °F 30.44 in SE 3.4 mph 6.9 mph 67 % 0.00 in
12:59 50.7 °F 40.1 °F 30.43 in SSE 5.9 mph 10.4 mph 67 % 0.00 in
13:04 50.6 °F 40.8 °F 30.44 in SSE 1.8 mph 8.1 mph 69 % 0.00 in
13:09 51.0 °F 41.9 °F 30.43 in South 2.3 mph 4.6 mph 71 % 0.00 in
13:14 51.5 °F 40.9 °F 30.42 in SE 6.6 mph 10.4 mph 67 % 0.00 in
13:19 51.5 °F 40.5 °F 30.42 in SE 5.7 mph 9.0 mph 66 % 0.00 in
13:24 51.4 °F 41.2 °F 30.42 in SSE 7.1 mph 12.7 mph 68 % 0.00 in
13:29 51.4 °F 40.4 °F 30.41 in SSE 7.7 mph 11.5 mph 66 % 0.00 in
13:34 51.1 °F 40.5 °F 30.41 in ESE 8.5 mph 16.1 mph 67 % 0.00 in
13:39 51.0 °F 40.4 °F 30.41 in SSE 7.4 mph 15.0 mph 67 % 0.00 in
13:44 51.1 °F 41.7 °F 30.41 in SSE 3.8 mph 5.0 mph 70 % 0.00 in
13:49 51.4 °F 41.6 °F 30.41 in SE 6.1 mph 11.5 mph 69 % 0.00 in
13:54 51.7 °F 41.5 °F 30.41 in SSE 2.4 mph 5.8 mph 68 % 0.00 in
13:59 51.8 °F 41.2 °F 30.41 in South 4.3 mph 6.9 mph 67 % 0.00 in
14:05 52.0 °F 42.1 °F 30.41 in SSW 6.9 mph 10.0 mph 69 % 0.00 in
14:09 52.1 °F 41.9 °F 30.40 in SSE 4.7 mph 10.4 mph 68 % 0.00 in
14:15 52.2 °F 41.6 °F 30.39 in East 6.5 mph 11.0 mph 67 % 0.00 in
14:25 52.3 °F 41.7 °F 30.39 in SE 3.0 mph 5.8 mph 67 % 0.00 in
14:30 52.6 °F 42.3 °F 30.39 in SSE 5.7 mph 10.0 mph 68 % 0.00 in
14:35 53.2 °F 42.1 °F 30.39 in South 3.8 mph 8.1 mph 66 % 0.00 in
14:40 53.5 °F 42.4 °F 30.38 in South 6.1 mph 6.9 mph 66 % 0.00 in
14:45 53.0 °F 41.9 °F 30.38 in SSE 2.1 mph 6.9 mph 66 % 0.00 in
14:50 53.3 °F 43.0 °F 30.38 in SSE 7.5 mph 13.0 mph 68 % 0.00 in
14:55 53.6 °F 42.5 °F 30.37 in South 5.9 mph 9.2 mph 66 % 0.00 in
15:00 53.6 °F 42.1 °F 30.36 in SSE 2.7 mph 5.0 mph 65 % 0.00 in
15:02 53.6 °F 42.1 °F 30.36 in SSW 2.8 mph 6.9 mph 65 % 0.00 in
15:07 53.8 °F 42.3 °F 30.37 in SSE 2.6 mph 8.1 mph 65 % 0.00 in
15:12 53.7 °F 41.8 °F 30.36 in SSE 6.2 mph 6.9 mph 64 % 0.00 in
15:17 53.5 °F 41.2 °F 30.37 in South 5.2 mph 10.4 mph 63 % 0.00 in
15:22 53.3 °F 41.4 °F 30.37 in SSW 3.7 mph 7.0 mph 64 % 0.00 in
15:27 53.4 °F 41.9 °F 30.36 in South 5.4 mph 10.4 mph 65 % 0.00 in
15:32 53.2 °F 41.7 °F 30.36 in SSE 3.7 mph 8.1 mph 65 % 0.00 in
15:37 52.6 °F 41.2 °F 30.35 in SSE 6.7 mph 8.1 mph 65 % 0.00 in
15:42 52.3 °F 41.3 °F 30.35 in SSW 2.1 mph 7.0 mph 66 % 0.00 in
15:47 52.3 °F 41.3 °F 30.35 in SSW 3.0 mph 11.5 mph 66 % 0.00 in
15:52 52.2 °F 41.6 °F 30.35 in SSW 1.5 mph 2.3 mph 67 % 0.00 in
15:57 51.9 °F 41.3 °F 30.35 in SE 3.3 mph 9.0 mph 67 % 0.00 in
16:02 51.5 °F 41.3 °F 30.35 in SSW 3.0 mph 10.4 mph 68 % 0.00 in
16:07 51.5 °F 41.6 °F 30.34 in SSE 3.0 mph 10.0 mph 69 % 0.00 in
16:12 51.4 °F 41.9 °F 30.33 in SE 7.0 mph 12.0 mph 70 % 0.00 in
16:17 51.2 °F 41.7 °F 30.34 in SSE 2.0 mph 13.0 mph 70 % 0.00 in
16:22 51.3 °F 41.8 °F 30.34 in SSE 8.0 mph 13.0 mph 70 % 0.00 in
16:27 51.1 °F 41.2 °F 30.34 in SSE 5.0 mph 10.0 mph 69 % 0.00 in
16:32 50.9 °F 41.4 °F 30.34 in South 6.0 mph 9.0 mph 70 % 0.00 in
16:37 50.6 °F 41.5 °F 30.34 in SSE 2.0 mph 6.0 mph 71 % 0.00 in
16:42 50.6 °F 41.2 °F 30.34 in South 2.0 mph 8.0 mph 70 % 0.00 in
16:47 50.6 °F 41.2 °F 30.34 in South 2.0 mph 6.0 mph 70 % 0.00 in
16:52 50.6 °F 41.2 °F 30.34 in SSE 2.0 mph 10.0 mph 70 % 0.00 in
16:57 50.4 °F 41.0 °F 30.34 in SE 4.4 mph 11.5 mph 70 % 0.00 in
17:02 50.2 °F 41.2 °F 30.34 in SE 2.6 mph 5.8 mph 71 % 0.00 in
17:07 49.9 °F 40.9 °F 30.33 in SSE 5.7 mph 9.2 mph 71 % 0.00 in
17:12 49.5 °F 40.8 °F 30.33 in SSW 3.3 mph 6.9 mph 72 % 0.00 in
17:17 49.4 °F 41.1 °F 30.33 in ESE 4.3 mph 6.9 mph 73 % 0.00 in
17:22 49.1 °F 41.2 °F 30.33 in SE 4.1 mph 5.8 mph 74 % 0.00 in
17:27 49.0 °F 41.1 °F 30.33 in SSE 5.5 mph 8.1 mph 74 % 0.00 in
17:32 48.8 °F 41.2 °F 30.33 in SSE 2.7 mph 5.8 mph 75 % 0.00 in
17:37 48.7 °F 41.1 °F 30.34 in SSE 3.4 mph 6.0 mph 75 % 0.00 in
17:42 48.7 °F 41.5 °F 30.33 in SSE 5.3 mph 8.0 mph 76 % 0.00 in
17:47 48.6 °F 42.0 °F 30.33 in SE 2.0 mph 5.0 mph 78 % 0.00 in
17:52 48.5 °F 42.0 °F 30.34 in SSE 3.2 mph 6.9 mph 78 % 0.00 in
17:57 48.4 °F 42.2 °F 30.34 in SE 2.7 mph 6.9 mph 79 % 0.00 in
18:02 48.2 °F 42.3 °F 30.34 in SSE 4.5 mph 5.0 mph 80 % 0.00 in
18:07 47.9 °F 42.3 °F 30.34 in SE 3.8 mph 5.8 mph 81 % 0.00 in
18:12 47.8 °F 42.9 °F 30.33 in SE 3.5 mph 5.8 mph 83 % 0.00 in
18:17 47.5 °F 42.6 °F 30.33 in SE 2.8 mph 5.0 mph 83 % 0.01 in
18:22 47.4 °F 42.8 °F 30.33 in SSE 4.0 mph 8.1 mph 84 % 0.01 in
18:27 47.2 °F 42.6 °F 30.32 in SE 2.5 mph 3.5 mph 84 % 0.01 in
18:32 47.1 °F 42.8 °F 30.31 in SSE 2.3 mph 5.8 mph 85 % 0.01 in
18:37 47.0 °F 42.7 °F 30.31 in SE 1.8 mph 5.8 mph 85 % 0.01 in
18:42 46.9 °F 42.6 °F 30.31 in SE 2.1 mph 3.5 mph 85 % 0.01 in
18:48 46.9 °F 42.6 °F 30.31 in SSE 1.8 mph 3.5 mph 85 % 0.01 in
18:53 46.9 °F 42.9 °F 30.31 in SSE 3.1 mph 5.0 mph 86 % 0.01 in
18:58 46.8 °F 42.8 °F 30.30 in South 5.6 mph 10.4 mph 86 % 0.02 in
19:03 46.6 °F 42.9 °F 30.29 in SSE 5.3 mph 8.1 mph 87 % 0.02 in
19:13 46.3 °F 42.9 °F 30.29 in East 5.7 mph 5.8 mph 88 % 0.03 in
19:18 46.3 °F 43.2 °F 30.28 in SSE 2.6 mph 5.8 mph 89 % 0.02 in
19:23 46.2 °F 43.1 °F 30.28 in SE 6.1 mph 10.4 mph 89 % 0.02 in
19:28 46.2 °F 43.1 °F 30.28 in South 1.7 mph 8.1 mph 89 % 0.02 in
19:33 46.2 °F 43.4 °F 30.29 in ESE 1.0 mph 6.9 mph 90 % 0.03 in
19:38 46.2 °F 43.4 °F 30.28 in SSE 4.1 mph 10.4 mph 90 % 0.03 in
19:43 46.2 °F 43.4 °F 30.29 in SSE 1.8 mph 4.0 mph 90 % 0.04 in
19:48 46.2 °F 43.4 °F 30.29 in SSE 4.9 mph 6.9 mph 90 % 0.04 in
19:53 46.1 °F 43.3 °F 30.29 in SSE 2.1 mph 8.1 mph 90 % 0.04 in
19:58 46.1 °F 43.3 °F 30.28 in SE 3.5 mph 5.8 mph 90 % 0.03 in
20:03 46.2 °F 43.7 °F 30.28 in SSE 0.8 mph 3.5 mph 91 % 0.03 in
20:08 46.2 °F 43.7 °F 30.28 in SSE 1.4 mph 3.5 mph 91 % 0.02 in
20:13 46.2 °F 43.7 °F 30.28 in South 1.4 mph 3.5 mph 91 % 0.02 in
20:19 46.2 °F 43.7 °F 30.28 in SSW 0.7 mph 2.3 mph 91 % 0.03 in
20:23 46.2 °F 43.7 °F 30.27 in South 0.4 mph 2.3 mph 91 % 0.03 in
20:29 46.2 °F 43.7 °F 30.26 in SSE 1.5 mph 5.8 mph 91 % 0.03 in
20:34 46.2 °F 43.7 °F 30.26 in SSE 2.5 mph 4.6 mph 91 % 0.02 in
20:39 46.2 °F 43.7 °F 30.27 in Calm     91 % 0.02 in
20:44 46.3 °F 43.8 °F 30.27 in Calm     91 % 0.01 in
20:49 46.3 °F 43.8 °F 30.27 in SSE 0.8 mph 3.5 mph 91 % 0.01 in
20:54 46.4 °F 44.2 °F 30.27 in SE 1.3 mph 3.5 mph 92 % 0.01 in
20:59 46.4 °F 44.2 °F 30.27 in SE 2.1 mph 5.0 mph 92 % 0.01 in
21:04 46.5 °F 44.3 °F 30.27 in SSE 1.2 mph 2.3 mph 92 % 0.01 in
21:09 46.5 °F 44.3 °F 30.27 in SE 1.4 mph 3.5 mph 92 % 0.01 in
21:14 46.5 °F 44.3 °F 30.27 in SE 0.3 mph 4.6 mph 92 % 0.01 in
21:19 46.6 °F 44.4 °F 30.27 in Calm   2.3 mph 92 % 0.00 in
21:24 46.6 °F 44.4 °F 30.27 in Calm     92 % 0.02 in
21:29 46.7 °F 44.8 °F 30.27 in SE 0.4 mph 2.3 mph 93 % 0.04 in
21:34 46.7 °F 44.8 °F 30.27 in SE 1.2 mph 3.0 mph 93 % 0.06 in
21:39 46.7 °F 44.8 °F 30.27 in SE 0.8 mph 3.0 mph 93 % 0.07 in
21:44 46.7 °F 44.8 °F 30.26 in SSE 1.3 mph 3.5 mph 93 % 0.08 in
21:49 46.7 °F 44.8 °F 30.26 in SE 1.3 mph 2.3 mph 93 % 0.08 in
21:54 46.7 °F 44.8 °F 30.25 in SSE 2.0 mph 5.8 mph 93 % 0.08 in
21:59 46.7 °F 44.8 °F 30.24 in South 4.1 mph 5.8 mph 93 % 0.08 in
22:04 46.7 °F 44.8 °F 30.24 in SSW 1.2 mph 4.6 mph 93 % 0.08 in
22:09 46.7 °F 45.1 °F 30.24 in SE 0.6 mph 2.3 mph 94 % 0.08 in
22:14 46.7 °F 45.1 °F 30.23 in SSE 0.5 mph 3.5 mph 94 % 0.08 in
22:19 46.7 °F 45.1 °F 30.23 in SSE 0.4 mph 2.3 mph 94 % 0.08 in
22:24 46.8 °F 45.2 °F 30.23 in SE 0.5 mph 3.5 mph 94 % 0.06 in
22:29 46.8 °F 45.2 °F 30.23 in South 1.5 mph 3.5 mph 94 % 0.04 in
22:34 46.8 °F 45.2 °F 30.23 in SE 0.8 mph 3.5 mph 94 % 0.02 in
22:39 46.8 °F 45.2 °F 30.23 in SE 0.6 mph 2.3 mph 94 % 0.01 in
22:44 46.9 °F 45.3 °F 30.23 in SE 2.1 mph 3.5 mph 94 % 0.00 in
22:49 46.9 °F 45.3 °F 30.23 in SSE 1.1 mph 3.5 mph 94 % 0.00 in
22:54 46.9 °F 45.3 °F 30.23 in Calm   1.0 mph 94 % 0.00 in
22:59 47.0 °F 45.6 °F 30.22 in SSE 0.2 mph 3.5 mph 95 % 0.00 in
23:04 47.1 °F 45.5 °F 30.22 in SSE 0.2 mph 5.8 mph 94 % 0.00 in
23:09 47.1 °F 45.7 °F 30.22 in Calm   1.2 mph 95 % 0.00 in
23:14 47.2 °F 45.8 °F 30.21 in SSE 0.5 mph 2.3 mph 95 % 0.00 in
23:19 47.2 °F 45.8 °F 30.20 in South 0.4 mph 2.3 mph 95 % 0.00 in
23:24 47.2 °F 45.8 °F 30.20 in South 0.9 mph 3.5 mph 95 % 0.00 in
23:29 47.3 °F 45.9 °F 30.20 in South 1.0 mph 2.3 mph 95 % 0.00 in
23:34 47.3 °F 45.9 °F 30.21 in South 0.1 mph 1.0 mph 95 % 0.00 in
23:39 47.4 °F 46.0 °F 30.21 in Calm     95 % 0.00 in
23:44 47.4 °F 46.0 °F 30.21 in Calm     95 % 0.00 in
23:49 47.4 °F 46.0 °F 30.21 in South 0.2 mph 1.2 mph 95 % 0.00 in
23:54 47.5 °F 46.1 °F 30.21 in Calm     95 % 0.00 in
23:59 47.6 °F 46.2 °F 30.21 in Calm     95 % 0.00 in
Crab Meadow Weather
Compliments of Weather Underground - 3 mb

Script developed by  Jim McMurry - jmcmurry@mwt.net Adapted for the template by  Wim van der Kuil - Leuven-Template.eu

Weather Terms: Funnel Cloud - A rotating column of air, extending from a towering cumulus or cumulonimbus cloud, that is not in contact with the ground.